Location: Brahman Valley
(40.6513°N, 111.8855°W)
Time: 07:36:48
(UTC+00:00)

Tiros 1 despin weight - Pass Details

Date: 14 May 2021
Orbit: 594 x 641 km, 48.2° (Epoch: 22 June)

Event Time Altitude Azimuth Distance (km) Brightness Sun altitude
Rises 08:12:16 0° 299° (WNW) 2,944 ? -29.6°
Reaches altitude 10° 08:14:38 10° 303° (WNW) 2,033 ? -29.5°
Enters shadow 08:16:04 20° 307° (NW) 1,499 ? -29.4°
Maximum altitude 08:19:17 63° 24° (NNE) 712 - -29.3°
Drops below altitude 10° 08:23:54 10° 106° (ESE) 2,012 - -29.0°
Sets 08:26:14 0° 110° (ESE) 2,912 - -28.9°
